Home   Weather   Belleville   Past weeks

Flag for Canada Past Weather in Belleville, Ontario, Canada — Yesterday and Last 2 Weeks

Now
77 °F

Partly sunny.


Feels Like: 79 °F
Forecast: N/A
Wind: 7 mph from Southwest

Location: Trenton

Current Time: Aug 30, 2016 at 4:50:32 PM

Latest Report: Aug 30, 2016 at 4:00 PM


Visibility: 15 mi

Pressure: 30.06 "Hg

Humidity: 65%

Dew Point: 64 °F

Location of BellevilleLocation

Past Weather in Belleville — Graph

°F

Belleville Temperature Yesterday

Maximum temperature yesterday: 81 °F (at 3:00 PM)
Minimum temperature yesterday: 63 °F (at 6:00 AM)
Average temperature yesterday: 70 °F

High & Low Weather Summary for the Past Weeks

 TemperatureHumidityPressure
High84 °F (Aug 20, 4:00 PM)94% (Aug 16, 8:00 AM)30.26 "Hg (Aug 16, 8:00 AM)
Low52 °F (Aug 22, 6:00 AM)45% (Aug 29, 3:00 PM)29.61 "Hg (Aug 21, 5:00 AM)
Average71 °F74%30.02 "Hg
* Reported Aug 15 3:00 PM — Aug 30 3:00 PM, Belleville, Weather by CustomWeather, © 2016

Note: Actual official high and low records may vary slightly from our data, if they occured in-between our weather recording intervals... More about our weather records

Advertising

Belleville Weather History for the Previous 24 Hours

Scroll right to see more
 ConditionsComfort  
Time TempWeatherWind HumidityBarometerVisibility
3:00 PM
Tue, Aug 30
77 °FScattered clouds.12 mph69%30.06 "Hg15 mi
2:00 PM75 °FPassing clouds.13 mph69%30.08 "Hg15 mi
1:00 PM77 °FPassing clouds.8 mph57%30.10 "Hg15 mi
12:00 PM75 °FPassing clouds.12 mph61%30.11 "Hg15 mi
11:00 AM75 °FPassing clouds.9 mph69%30.12 "Hg15 mi
10:00 AM73 °FPartly sunny.5 mph74%30.15 "Hg15 mi
9:00 AM68 °FPartly sunny.No wind83%30.15 "Hg15 mi
8:00 AM63 °FScattered clouds.No wind94%30.16 "Hg15 mi
7:00 AM59 °FPassing clouds.3 mph88%30.16 "Hg15 mi
6:00 AM57 °FPassing clouds.2 mph88%30.16 "Hg15 mi
5:00 AM55 °FClear.No wind94%30.16 "Hg15 mi
4:00 AM57 °FClear.No wind88%30.16 "Hg15 mi
3:00 AM57 °FClear.No wind94%30.17 "Hg15 mi
2:00 AM57 °FClear.3 mph94%30.17 "Hg15 mi
1:00 AM59 °FClear.No wind94%30.18 "Hg15 mi
12:00 AM63 °FClear.No wind94%30.18 "Hg15 mi
11:00 PM
Mon, Aug 29
63 °FClear.No wind88%30.19 "Hg15 mi
10:00 PM64 °FPassing clouds.No wind88%30.19 "Hg15 mi
9:00 PM68 °FPassing clouds.2 mph78%30.19 "Hg15 mi
8:00 PM72 °FPartly sunny.6 mph73%30.17 "Hg15 mi
7:00 PM73 °FPartly sunny.6 mph69%30.19 "Hg15 mi
6:00 PM75 °FScattered clouds.8 mph65%30.18 "Hg15 mi
5:00 PM77 °FScattered clouds.8 mph61%30.19 "Hg15 mi
4:00 PM77 °FPassing clouds.10 mph61%30.19 "Hg15 mi
Weather by CustomWeather, © 2016

See weather overviewHow to use our weather pages